Find Local Weather

World > North America > United States > Wisconsin

Cambridge, Wisconsin Regional Weather

Lat: 43.01N, Lon: 89.02W
Wx Zone: WIZ063
Warning FLW WEATHER ALERT - (More Info. Click Here) Warning
Feedback
Expires:201812111800;;639035
ASUS43 KMKX 111720
RWRWI 

WISCONSIN REGIONAL WEATHER ROUNDUP
NATIONAL WEATHER SERVICE MILWAUKEE/SULLIVAN WI
1100 AM CST TUE DEC 11 2018

NOTE: "FAIR" INDICATES FEW OR NO CLOUDS BELOW 12,000 FEET WITH NO
SIGNIFICANT WEATHER AND/OR OBSTRUCTIONS TO VISIBILITY.


WIZ051-052-058>065-066-070>072-111800-
SOUTHEAST WISCONSIN
  
CITY           SKY/WX    TMP DP  RH WIND       PRES   REMARKS
MILWAUKEE      FAIR      31  19  61 NW7       30.03S WCI  24          
WAUKESHA       SUNNY     27  19  74 W5        30.02F WCI  21          
MILWAUKEE/TIMM SUNNY     25  18  74 NW5       30.03F WCI  19          
RACINE         FAIR      31  21  66 NW7       30.04F WCI  24          
KENOSHA        FAIR      31  24  75 W7        30.02F WCI  24          
FOND DU LAC    CLOUDY    23  20  88 NE7       30.03F FOG     WCI  15  
SHEBOYGAN      CLOUDY    28  21  75 NW7       30.01F WCI  21          
WEST BEND      CLOUDY    23  21  93 NW5       30.02S FOG     WCI  17  
JUNEAU         CLOUDY    20  18  93 CALM      30.03F FOG              
$$


SKY/WX - Weather  TMP - Temperature  DP - Dew Point  RH - Relative Humidity
WIND - Wind Direction/Speed PRES - Barometric Pressure